EW8324 Weather Reports


Display with metric or nautical units.
time (UTC)temp
F
wind
direction
speed
MPH
gust
MPH
rain 1hr
in
rain 24hr
in
rain mn
in
humidity
%
barometer
mb
20260508122033 67 243 0.0 0.0 0.00 0.00 0.00 85 1008.9
20260508121534 67 241 0.0 0.0 0.00 0.00 0.00 85 1009.0
20260508121033 67 247 0.0 0.0 0.00 0.00 0.00 85 1009.1
20260508120532 67 247 0.0 0.0 0.00 0.00 0.00 85 1009.2
20260508120033 68 230 0.0 0.0 0.00 0.00 0.00 85 1009.2
20260508115533 68 176 0.0 0.0 0.00 0.00 0.00 84 1009.1
20260508115033 68 176 0.0 0.0 0.00 0.00 0.00 83 1009.1
20260508114533 68 317 0.0 0.0 0.00 0.00 0.00 83 1009.1
20260508114033 68 317 0.0 0.0 0.00 0.00 0.00 83 1009.3
20260508113755 68 317 0.0 0.0 0.00 0.00 0.00 83 1009.4
20260508113640 68 317 0.0 0.0 0.00 0.00 0.00 83 1009.4
20260508113033 68 255 0.0 0.0 0.00 0.00 0.00 83 1009.2
20260508112533 68 203 0.0 0.0 0.00 0.00 0.00 83 1009.1
20260508112031 68 203 0.0 0.0 0.00 0.00 0.00 83 1008.9
20260508111532 68 202 0.0 0.0 0.00 0.00 0.00 83 1008.7
20260508111034 68 202 0.0 0.0 0.00 0.00 0.00 83 1008.6
20260508110532 68 202 0.0 0.0 0.00 0.00 0.00 83 1008.3
20260508110033 68 202 0.0 0.0 0.00 0.00 0.00 83 1008.1
20260508105531 68 202 0.0 0.0 0.00 0.00 0.00 83 1008.3
20260508105031 68 240 0.0 0.0 0.00 0.00 0.00 83 1008.1
20260508104532 68 226 0.0 0.0 0.00 0.00 0.00 84 1008.0
20260508104018 68 226 0.0 0.0 0.00 0.00 0.00 84 1008.4
20260508103512 68 320 0.0 0.0 0.00 0.00 0.00 84 1008.8
20260508103000 68 320 0.0 0.0 0.00 0.00 0.00 84 1009.0
20260508102449 68 320 0.0 0.0 0.00 0.00 0.00 84 1009.3
20260508102157 68 321 0.0 0.0 0.00 0.00 0.00 84 1009.0
20260508102047 68 321 0.0 0.0 0.00 0.00 0.00 84 1009.0
20260508101923 68 185 0.0 0.0 0.00 0.00 0.00 84 1008.4
20260508101543 68 185 0.0 0.0 0.00 0.00 0.00 84 1008.4
20260508100935 68 185 0.0 0.0 0.00 0.00 0.00 84 1008.1
20260508100436 68 185 0.0 0.0 0.00 0.00 0.00 84 1008.0
20260508095932 68 186 0.0 0.0 0.00 0.00 0.00 84 1008.2
20260508095434 68 186 0.0 0.0 0.00 0.00 0.00 84 1008.5
20260508095201 68 17 0.0 0.0 0.00 0.00 0.00 84 1008.8
20260508095041 68 17 0.0 0.0 0.00 0.00 0.00 84 1008.8
20260508094432 68 18 0.0 0.0 0.00 0.00 0.00 84 1008.9
20260508093930 68 18 0.0 0.0 0.00 0.00 0.00 84 1008.9
20260508093426 68 18 0.0 0.0 0.00 0.00 0.00 84 1008.7
20260508092930 68 17 0.0 0.0 0.00 0.00 0.00 84 1008.6
20260508092432 68 0 0.0 0.0 0.00 0.00 0.00 84 1008.4
20260508091943 68 0 0.0 0.0 0.00 0.00 0.00 84 1008.1
20260508091431 68 134 0.0 0.0 0.00 0.00 0.00 83 1007.9
20260508090929 68 224 0.0 0.0 0.00 0.00 0.00 83 1008.1
20260508090430 68 179 0.0 0.0 0.00 0.00 0.00 83 1008.2
20260508085930 68 183 0.0 0.0 0.00 0.00 0.00 83 1008.4
20260508085433 68 148 0.0 0.0 0.00 0.00 0.00 83 1008.3
20260508084929 68 151 0.0 0.0 0.00 0.00 0.00 83 1008.4
20260508084430 68 151 0.0 0.0 0.00 0.00 0.00 83 1008.7
20260508083929 68 125 0.0 0.0 0.00 0.00 0.00 82 1008.7
20260508083429 68 125 0.0 0.0 0.00 0.00 0.00 82 1008.8
20260508082928 68 219 0.0 0.0 0.00 0.00 0.00 82 1008.8
20260508082647 68 292 0.0 0.0 0.00 0.00 0.00 82 1008.8
20260508082538 68 292 0.0 0.0 0.00 0.00 0.00 82 1008.8
20260508081929 68 292 0.0 0.0 0.00 0.00 0.00 82 1008.8
20260508081646 68 92 0.0 0.0 0.00 0.00 0.00 82 1008.4
20260508081536 68 92 0.0 0.0 0.00 0.00 0.00 82 1008.4
20260508080929 68 159 0.0 0.0 0.00 0.00 0.00 82 1008.4
20260508080430 68 159 0.0 0.0 0.00 0.00 0.00 81 1008.4
20260508075927 68 188 0.0 0.0 0.00 0.00 0.00 81 1008.5
20260508075430 68 152 0.0 0.0 0.00 0.00 0.00 81 1008.8
20260508074926 68 99 0.0 0.0 0.00 0.00 0.00 81 1009.0
20260508074430 68 75 0.0 0.0 0.00 0.00 0.00 81 1009.1
20260508073929 68 75 0.0 0.0 0.00 0.00 0.00 80 1009.1
20260508073429 68 75 0.0 0.0 0.00 0.00 0.00 80 1009.3
20260508072927 69 73 0.0 0.0 0.00 0.00 0.00 80 1009.3
20260508072428 69 337 0.0 0.0 0.00 0.00 0.00 81 1009.2
20260508072148 69 11 0.0 0.0 0.00 0.00 0.00 81 1009.1
20260508072034 69 11 0.0 0.0 0.00 0.00 0.00 81 1009.1
20260508071431 69 226 0.0 0.0 0.00 0.00 0.00 81 1008.9
20260508071141 69 164 0.0 1.0 0.00 0.00 0.00 81 1009.2
20260508071025 69 226 0.0 0.0 0.00 0.00 0.00 81 1009.0
20260508070535 69 164 0.0 1.0 0.00 0.00 0.00 81 1009.2
20260508065926 69 237 0.0 1.0 0.00 0.00 0.00 81 1009.2
20260508065427 69 189 0.0 0.0 0.00 0.00 0.00 81 1009.1
20260508064927 69 173 0.0 0.0 0.00 0.00 0.00 81 1009.0
20260508064651 69 172 0.0 0.0 0.00 0.00 0.00 81 1009.4
20260508064533 69 172 0.0 0.0 0.00 0.00 0.00 81 1009.4
20260508064145 69 172 0.0 0.0 0.00 0.00 0.00 81 1009.3
20260508064030 69 172 0.0 0.0 0.00 0.00 0.00 81 1009.4
20260508063535 69 172 0.0 0.0 0.00 0.00 0.00 81 1009.3
20260508062926 69 169 0.0 0.0 0.00 0.00 0.00 81 1009.1
20260508062427 69 182 0.0 0.0 0.00 0.00 0.00 80 1009.1
20260508062147 69 182 0.0 0.0 0.00 0.00 0.00 80 1009.0
20260508062032 69 182 0.0 0.0 0.00 0.00 0.00 80 1009.0
20260508061427 69 223 0.0 0.0 0.00 0.00 0.00 80 1008.9
20260508060926 69 223 0.0 0.0 0.00 0.00 0.00 80 1008.9
20260508060426 69 223 0.0 0.0 0.00 0.00 0.00 80 1009.1
20260508055925 69 221 0.0 0.0 0.00 0.00 0.00 80 1009.3
20260508055427 69 221 0.0 0.0 0.00 0.00 0.00 80 1009.4
20260508054925 69 221 0.0 0.0 0.00 0.00 0.00 80 1009.4
20260508054428 69 221 0.0 0.0 0.00 0.00 0.00 80 1009.1
20260508053925 69 221 0.0 0.0 0.00 0.00 0.00 80 1008.8
20260508053427 69 231 0.0 0.0 0.00 0.00 0.00 80 1008.7
20260508052923 69 231 0.0 0.0 0.00 0.00 0.00 80 1008.8
20260508052425 69 231 0.0 0.0 0.00 0.00 0.00 80 1009.0
20260508051924 69 231 0.0 0.0 0.00 0.00 0.00 79 1009.1
20260508051426 69 231 0.0 0.0 0.00 0.00 0.00 79 1009.1
20260508050923 69 231 0.0 0.0 0.00 0.00 0.00 80 1009.0
20260508050439 69 231 0.0 0.0 0.00 0.00 0.00 79 1008.9
20260508045923 69 234 0.0 0.0 0.00 0.00 0.00 79 1009.1
20260508045427 70 234 0.0 0.0 0.00 0.00 0.00 79 1009.1
20260508044922 70 234 0.0 1.0 0.00 0.00 0.00 79 1009.2
20260508044425 70 233 0.0 1.0 0.00 0.00 0.00 79 1009.3
20260508043923 70 137 0.0 0.0 0.00 0.00 0.00 79 1009.3
20260508043423 0 0.0 0.0 0.00 0.00 0.00 1009.4
20260508042923 70 135 0.0 0.0 0.00 0.00 0.00 78 1009.4
20260508042425 70 135 0.0 0.0 0.00 0.00 0.00 77 1009.3
20260508041924 70 347 0.0 0.0 0.00 0.00 0.00 77 1009.3
20260508041426 70 337 0.0 0.0 0.00 0.00 0.00 77 1009.1
20260508040922 70 337 0.0 0.0 0.00 0.00 0.00 77 1009.0
20260508040651 70 337 0.0 0.0 0.00 0.00 0.00 76 1009.2
20260508040532 70 337 0.0 0.0 0.00 0.00 0.00 76 1009.2
20260508035922 70 61 0.0 0.0 0.00 0.00 0.00 76 1009.3
20260508035425 70 62 0.0 0.0 0.00 0.00 0.00 75 1009.3
20260508034922 70 63 0.0 0.0 0.00 0.00 0.00 75 1009.1
20260508034423 70 190 0.0 0.0 0.00 0.00 0.00 74 1009.0
20260508033922 71 195 0.0 0.0 0.00 0.00 0.00 74 1009.0
20260508033422 71 223 0.0 0.0 0.00 0.00 0.00 74 1009.2
20260508032919 71 199 0.0 0.0 0.00 0.00 0.00 73 1009.3
20260508032422 71 234 0.0 0.0 0.00 0.00 0.00 73 1009.4
20260508031920 71 268 0.0 0.0 0.00 0.00 0.00 73 1009.7
20260508031423 71 268 0.0 0.0 0.00 0.00 0.00 73 1009.7
20260508030921 71 268 0.0 0.0 0.00 0.00 0.00 72 1009.6
20260508030423 72 358 0.0 0.0 0.00 0.00 0.00 72 1009.6
20260508025920 72 86 0.0 0.0 0.00 0.00 0.00 72 1009.9
20260508025424 72 86 0.0 0.0 0.00 0.00 0.00 71 1010.1
20260508025143 72 306 0.0 0.0 0.00 0.00 0.00 71 1010.0
20260508025028 72 306 0.0 0.0 0.00 0.00 0.00 71 1010.0
20260508024423 72 0 0.0 0.0 0.00 0.00 0.00 71 1010.0
20260508023920 72 0 0.0 0.0 0.00 0.00 0.00 71 1009.7
20260508023423 72 130 0.0 0.0 0.00 0.00 0.00 70 1009.6
20260508022920 72 131 0.0 0.0 0.00 0.00 0.00 70 1009.5
20260508022423 72 133 0.0 0.0 0.00 0.00 0.00 70 1009.4
20260508021919 73 161 0.0 0.0 0.00 0.00 0.00 70 1009.5
20260508021422 73 316 0.0 0.0 0.00 0.00 0.00 69 1009.7
20260508020919 73 0 0.0 0.0 0.00 0.00 0.00 69 1009.6
20260508020649 73 341 0.0 0.0 0.00 0.00 0.00 69 1009.7
20260508020531 73 341 0.0 0.0 0.00 0.00 0.00 69 1009.7
20260508020137 73 341 0.0 0.0 0.00 0.00 0.00 68 1009.7
20260508020024 73 341 0.0 0.0 0.00 0.00 0.00 68 1009.7
20260508015424 73 338 0.0 0.0 0.00 0.00 0.00 68 1009.5
20260508014919 73 320 0.0 0.0 0.00 0.00 0.00 68 1009.5
20260508014643 73 320 0.0 0.0 0.00 0.00 0.00 68 1009.4
20260508014532 73 320 0.0 0.0 0.00 0.00 0.00 68 1009.4
20260508013919 74 320 0.0 0.0 0.00 0.00 0.00 68 1009.6
20260508013433 74 320 0.0 0.0 0.00 0.00 0.00 69 1009.5
20260508012917 74 320 0.0 0.0 0.00 0.00 0.00 68 1009.5
20260508012426 74 320 0.0 0.0 0.00 0.00 0.00 68 1009.4
20260508011917 74 320 0.0 0.0 0.00 0.00 0.00 68 1009.3
20260508011423 74 337 0.0 0.0 0.00 0.00 0.00 67 1009.2
20260508010916 0 0.0 0.0 0.00 0.00 0.00 1009.2
20260508010640 0 0.0 0.0 0.00 0.00 0.00 1009.2
20260508010530 0 0.0 0.0 0.00 0.00 0.00 1009.2
20260508010130 0 0.0 0.0 0.00 0.00 0.00 1009.2
20260508010025 0 0.0 0.0 0.00 0.00 0.00 1009.2
20260508005420 0 0.0 0.0 0.00 0.00 0.00 1009.3
20260508004914 0 0.0 0.0 0.00 0.00 0.00 1009.2
20260508004417 76 14 0.0 0.0 0.00 0.00 0.00 67 1009.1
20260508003912 76 45 0.0 0.0 0.00 0.00 0.00 68 1009.2
20260508003415 0 0.0 0.0 0.00 0.00 0.00 1009.0
20260508002911 0 0.0 0.0 0.00 0.00 0.00 1009.2
20260508002413 0 0.0 0.0 0.00 0.00 0.00 1009.4
20260508001910 0 0.0 0.0 0.00 0.00 0.00 1009.3
20260508001621 0 0.0 0.0 0.00 0.00 0.00 1009.4
20260508001504 0 0.0 0.0 0.00 0.00 0.00 1009.3
20260508001015 0 0.0 0.0 0.00 0.00 0.00 1009.4
20260508000413 76 147 0.0 0.0 0.00 0.00 0.00 68 1009.3
20260507235907 76 147 0.0 0.0 0.00 0.00 0.00 68 1009.5
20260507235633 76 147 0.0 0.0 0.00 0.00 0.00 68 1009.6
20260507235515 76 147 0.0 0.0 0.00 0.00 0.00 68 1009.6
20260507234905 76 147 0.0 0.0 0.00 0.00 0.00 67 1009.6
20260507234854 77 82 0.0 0.0 0.00 0.00 0.00 67 1009.6
20260507234516 77 82 0.0 0.0 0.00 0.00 0.00 67 1009.6
20260507233905 77 82 0.0 4.0 0.00 0.00 0.00 66 1009.4
20260507233853 77 37 0.0 4.0 0.00 0.00 0.00 66 1009.3
20260507233515 77 37 0.0 4.0 0.00 0.00 0.00 66 1009.3
20260507232906 77 0 0.0 2.0 0.00 0.00 0.00 66 1009.3
20260507232407 78 130 0.0 2.0 0.00 0.00 0.00 66 1009.2
20260507231906 78 117 0.0 0.0 0.00 0.00 0.00 66 1009.2
20260507231410 78 124 0.0 0.0 0.00 0.00 0.00 67 1009.1
20260507230906 78 0 0.0 0.0 0.00 0.00 0.00 67 1009.0
20260507230630 78 192 0.0 0.0 0.00 0.00 0.00 68 1009.0
20260507230516 78 192 0.0 0.0 0.00 0.00 0.00 68 1009.0
20260507230349 78 192 0.0 0.0 0.00 0.00 0.00 66 1009.0
20260507230012 78 192 0.0 0.0 0.00 0.00 0.00 66 1009.0
20260507225407 78 192 0.0 0.0 0.00 0.00 0.00 67 1008.9
20260507224906 78 330 0.0 0.0 0.00 0.00 0.00 67 1008.9
20260507224407 78 190 0.0 0.0 0.00 0.00 0.00 66 1008.7
20260507224124 79 207 0.0 0.0 0.00 0.00 0.00 65 1008.8
20260507224013 79 207 0.0 0.0 0.00 0.00 0.00 65 1008.8
20260507223405 78 314 0.0 0.0 0.00 0.00 0.00 65 1008.7
20260507222905 78 268 0.0 0.0 0.00 0.00 0.00 66 1008.8
20260507222409 79 114 0.0 0.0 0.00 0.00 0.00 65 1008.9
20260507221904 79 0 0.0 0.0 0.00 0.00 0.00 64 1009.0
20260507221632 79 83 0.0 0.0 0.00 0.00 0.00 65 1009.1
20260507221515 79 83 0.0 0.0 0.00 0.00 0.00 65 1009.1
20260507220906 79 83 0.0 0.0 0.00 0.00 0.00 65 1009.1
20260507220405 79 11 0.0 0.0 0.00 0.00 0.00 64 1009.1
20260507215903 80 358 0.0 0.0 0.00 0.00 0.00 64 1009.1
20260507215405 80 3 0.0 0.0 0.00 0.00 0.00 66 1009.1
20260507214905 80 127 0.0 0.0 0.00 0.00 0.00 65 1009.1
20260507214405 80 313 0.0 0.0 0.00 0.00 0.00 65 1009.2
20260507213903 79 113 0.0 0.0 0.00 0.00 0.00 66 1009.3
20260507213406 79 59 0.0 5.0 0.00 0.00 0.00 64 1009.3
20260507212905 79 73 0.0 5.0 0.00 0.00 0.00 64 1009.2
20260507212406 79 7 0.0 0.0 0.00 0.00 0.00 64 1009.2
20260507211903 79 56 0.0 0.0 0.00 0.00 0.00 64 1009.3
20260507211628 80 183 0.0 0.0 0.00 0.00 0.00 65 1009.3
20260507211514 80 183 0.0 0.0 0.00 0.00 0.00 65 1009.3
20260507210905 79 347 0.0 0.0 0.00 0.00 0.00 65 1009.3
20260507210404 79 85 0.0 0.0 0.00 0.00 0.00 65 1009.4
20260507205902 79 0 0.0 0.0 0.00 0.01 0.00 65 1009.5
20260507205403 79 355 0.0 0.0 0.00 0.02 0.00 65 1009.5
20260507204905 79 87 0.0 0.0 0.00 0.02 0.00 67 1009.5
20260507204403 79 0 0.0 0.0 0.00 0.02 0.00 67 1009.6
20260507204125 79 292 0.0 0.0 0.00 0.02 0.00 66 1009.6
20260507204010 79 292 0.0 0.0 0.00 0.02 0.00 66 1009.6
20260507203404 79 157 0.0 0.0 0.00 0.02 0.00 67 1009.6
20260507203129 78 24 0.0 0.0 0.00 0.02 0.00 66 1009.7
20260507203010 78 24 0.0 0.0 0.00 0.02 0.00 66 1009.7
20260507202405 78 135 0.0 0.0 0.00 0.02 0.00 67 1009.8
20260507201902 78 87 0.0 0.0 0.00 0.02 0.00 67 1009.8
20260507201605 78 161 0.0 0.0 0.00 0.02 0.00 66 1010.0
20260507201457 78 190 0.0 0.0 0.00 0.02 0.00 68 1009.9
20260507201008 78 161 0.0 0.0 0.00 0.02 0.00 66 1010.0
20260507200401 0 0.0 0.0 0.00 0.02 0.00 1010.0
20260507195901 79 0 0.0 0.0 0.00 0.02 0.00 66 1009.9
20260507195402 78 0 0.0 0.0 0.00 0.02 0.00 66 1010.0
20260507194900 78 78 0.0 0.0 0.00 0.02 0.00 67 1010.0
20260507194621 78 353 0.0 0.0 0.00 0.02 0.00 67 1010.0
20260507194513 78 353 0.0 0.0 0.00 0.02 0.00 67 1010.0
20260507193859 78 90 0.0 0.0 0.00 0.02 0.00 69 1010.3
20260507193402 78 283 0.0 0.0 0.00 0.02 0.00 67 1010.3
20260507192859 78 345 0.0 0.0 0.00 0.02 0.00 69 1010.4
20260507192402 78 259 0.0 0.0 0.00 0.02 0.00 67 1010.5
20260507191901 78 357 0.0 0.0 0.00 0.02 0.00 68 1010.6
20260507191402 77 317 0.0 0.0 0.00 0.02 0.00 68 1010.7
20260507190859 77 16 0.0 0.0 0.00 0.02 0.00 69 1010.8
20260507190403 77 141 0.0 0.0 0.00 0.02 0.00 69 1010.8
20260507185858 77 324 0.0 0.0 0.00 0.02 0.00 69 1010.9
20260507185401 76 0 0.0 2.0 0.00 0.02 0.00 70 1011.0
20260507184859 76 1 0.0 2.0 0.00 0.02 0.00 69 1010.9
20260507184621 76 333 0.0 5.0 0.00 0.02 0.00 70 1011.0
20260507184511 76 333 0.0 5.0 0.00 0.02 0.00 70 1011.0
20260507183859 75 338 0.0 5.0 0.00 0.02 0.00 71 1011.1
20260507183400 75 3 0.0 3.0 0.00 0.02 0.00 71 1011.1
20260507182859 75 85 0.0 6.0 0.00 0.02 0.00 71 1011.2
20260507182400 74 120 1.0 6.0 0.00 0.02 0.00 71 1011.2
20260507181858 74 310 0.0 0.0 0.00 0.02 0.00 72 1011.3
20260507181618 74 151 0.0 0.0 0.00 0.02 0.00 72 1011.3
20260507181507 74 151 0.0 0.0 0.00 0.02 0.00 72 1011.3
20260507180857 74 175 0.0 0.0 0.00 0.02 0.00 73 1011.3
20260507180358 74 0 0.0 0.0 0.00 0.02 0.00 74 1011.4
20260507175858 73 27 0.0 0.0 0.00 0.02 0.00 73 1011.5
20260507175359 73 121 0.0 0.0 0.00 0.02 0.00 73 1011.7
20260507174858 73 161 0.0 0.0 0.00 0.02 0.00 75 1011.7
20260507174400 72 123 0.0 0.0 0.00 0.02 0.00 74 1011.8
20260507173856 72 286 0.0 0.0 0.00 0.02 0.00 74 1012.0
20260507173358 72 103 0.0 0.0 0.00 0.02 0.00 74 1012.0
20260507172857 72 117 0.0 0.0 0.00 0.02 0.00 75 1011.8
20260507172358 72 172 0.0 4.0 0.00 0.02 0.00 74 1011.8
20260507171856 72 76 0.0 4.0 0.00 0.02 0.00 74 1012.0
20260507171400 73 92 2.0 4.0 0.00 0.02 0.00 73 1012.0
20260507170857 72 4 0.0 0.0 0.00 0.02 0.00 74 1012.1
20260507170358 72 254 0.0 0.0 0.00 0.02 0.00 76 1011.9
20260507165857 71 23 0.0 0.0 0.00 0.02 0.00 75 1012.0
20260507165358 71 161 0.0 0.0 0.00 0.02 0.00 74 1012.0
20260507164856 71 336 0.0 0.0 0.00 0.02 0.00 74 1012.1
20260507164400 71 213 0.0 0.0 0.00 0.02 0.00 74 1012.0
20260507163852 72 214 0.0 0.0 0.00 0.02 0.00 76 1011.9
20260507163613 71 314 0.0 0.0 0.00 0.02 0.00 77 1011.8
20260507163459 71 314 0.0 0.0 0.00 0.02 0.00 77 1011.8
20260507162852 70 4 0.0 0.0 0.00 0.02 0.00 78 1011.7
20260507162357 69 0 0.0 0.0 0.00 0.02 0.00 78 1011.5
20260507161856 69 348 0.0 5.0 0.00 0.02 0.00 78 1011.4
20260507161402 69 224 1.0 5.0 0.00 0.02 0.00 79 1011.3
20260507161118 69 226 0.0 0.0 0.00 0.02 0.00 79 1011.4
20260507161004 69 226 0.0 0.0 0.00 0.02 0.00 79 1011.4
20260507160358 68 47 0.0 3.0 0.00 0.02 0.00 79 1011.6
20260507155858 68 102 0.0 3.0 0.00 0.02 0.00 79 1011.7
20260507155849 67 80 0.0 6.0 0.00 0.02 0.00 80 1011.7
20260507155505 67 80 0.0 6.0 0.00 0.02 0.00 80 1011.7
20260507155333 67 121 1.0 6.0 0.00 0.02 0.00 81 1011.7
20260507155003 67 121 1.0 6.0 0.00 0.02 0.00 81 1011.7
20260507154352 67 104 0.0 4.0 0.00 0.02 0.00 80 1011.8
20260507153853 67 7 0.0 11.0 0.00 0.02 0.00 81 1011.8
20260507153356 66 353 0.0 11.0 0.00 0.02 0.00 82 1012.0
20260507152855 66 341 0.0 0.0 0.00 0.02 0.00 82 1012.0
20260507152354 65 113 0.0 0.0 0.00 0.02 0.00 83 1011.9
20260507151853 65 6 0.0 2.0 0.00 0.02 0.00 83 1011.9
20260507151618 65 127 0.0 2.0 0.00 0.02 0.00 83 1011.9
20260507151504 65 127 0.0 2.0 0.00 0.02 0.00 83 1011.9
20260507151337 65 93 0.0 2.0 0.00 0.02 0.00 83 1011.9
20260507151001 65 93 0.0 2.0 0.00 0.02 0.00 83 1011.9
20260507150358 65 345 0.0 0.0 0.00 0.02 0.00 84 1011.9
20260507145850 64 175 0.0 0.0 0.00 0.02 0.00 84 1011.8
20260507145354 64 100 0.0 5.0 0.00 0.02 0.00 84 1011.8
20260507144616 64 92 0.0 7.0 0.00 0.02 0.00 84 1011.7
20260507144504 64 92 0.0 7.0 0.00 0.02 0.00 84 1011.7
20260507144112 64 21 1.0 7.0 0.00 0.02 0.00 84 1011.7
20260507144002 64 21 1.0 7.0 0.00 0.02 0.00 84 1011.7
20260507143356 64 179 1.0 5.0 0.00 0.02 0.00 84 1011.5
20260507142853 64 97 0.0 4.0 0.00 0.02 0.00 84 1011.4
20260507142354 64 71 1.0 4.0 0.00 0.02 0.00 84 1011.5
20260507141854 64 123 0.0 1.0 0.00 0.02 0.00 85 1011.3
20260507141355 64 59 0.0 5.0 0.00 0.02 0.00 86 1011.5
20260507141114 64 353 0.0 5.0 0.00 0.02 0.00 86 1011.6
20260507140959 64 353 0.0 5.0 0.00 0.02 0.00 86 1011.6
20260507140353 64 93 0.0 1.0 0.00 0.02 0.00 86 1011.7
20260507135852 64 109 0.0 0.0 0.00 0.02 0.00 86 1011.7
20260507135355 64 299 0.0 1.0 0.00 0.02 0.00 87 1011.6
20260507134852 64 75 0.0 1.0 0.00 0.02 0.00 87 1011.8
20260507134834 64 89 0.0 1.0 0.00 0.02 0.00 87 1011.9
20260507134500 64 89 0.0 1.0 0.00 0.02 0.00 87 1011.9
20260507133853 64 106 0.0 1.0 0.00 0.02 0.00 87 1011.9
20260507133837 64 116 0.0 1.0 0.00 0.02 0.00 87 1011.9
20260507133503 64 116 0.0 1.0 0.00 0.02 0.00 87 1011.9
20260507132852 64 130 0.0 1.0 0.00 0.02 0.00 87 1011.8
20260507132352 64 302 0.0 0.0 0.00 0.02 0.00 87 1011.9
20260507131852 64 313 0.0 0.0 0.00 0.02 0.00 87 1011.9
20260507131352 64 279 0.0 1.0 0.00 0.02 0.00 87 1011.8
20260507130851 64 14 0.0 1.0 0.00 0.02 0.00 87 1011.8
20260507130352 64 103 0.0 0.0 0.00 0.02 0.00 87 1011.7
20260507125852 64 341 0.0 0.0 0.00 0.02 0.00 87 1011.8
20260507125352 64 1 0.0 0.0 0.00 0.02 0.00 87 1011.9
20260507124851 64 144 0.0 0.0 0.00 0.02 0.00 87 1011.5
20260507124351 64 51 0.0 0.0 0.00 0.02 0.00 87 1011.5
20260507123850 64 3 0.0 1.0 0.00 0.02 0.00 86 1011.3
20260507123352 64 0 0.0 1.0 0.00 0.02 0.00 86 1011.5
20260507122850 64 233 0.0 0.0 0.00 0.02 0.00 86 1011.1
20260507122835 64 231 0.0 0.0 0.00 0.02 0.00 86 1011.4
20260507122501 64 231 0.0 0.0 0.00 0.02 0.00 86 1011.4